Regional Weather Roundup
Issued by NWS Kansas City/Pleasant Hill, MO

Home | Current Version | Previous Version | Graphics & Text | Print | Product List | Glossary Off
Versions: 1 2 3 4 5 6 7 8 9 10 11 12 13 14 15 16 17 18 19 20 21 22 23 24 25 26 27 28 29 30 31 32 33 34 35 36 37 38 39 40 41 42 43 44 45 46 47 48 49 50

000
ASUS43 KEAX 231104
RWREAX

WEATHER ROUNDUP FOR EASTERN KANSAS AND NORTHWEST MISSOURI
NATIONAL WEATHER SERVICE KANSAS CITY/PLEASANT HILL MO
600 AM CDT SAT MAY 23 2015

KSZ040-057-103>105-MOZ028-029-037-043-231200-
...KANSAS CITY METROPOLITAN AREA...

CITY           SKY/WX    TMP DP  RH WIND       PRES   REMARKS
K.C. INTL      CLOUDY    59  52  77 SE7       30.21S
K.C. DOWNTOWN  CLOUDY    61  52  72 CALM      30.21R
LEES SUMMIT    CLOUDY    59  51  75 S5        30.22R
OLATHE - IXD   CLOUDY    56  53  90 SE6       30.21S
OLATHE - OJC   LGT RAIN  56  53  90 S7        30.21R FOG
LAWRENCE       CLOUDY    59  52  77 SE7       30.20S

$$

MOZ001>008-011>017-020>025-030>033-038>040-044>046-053-054-231200-
...NORTHERN AND CENTRAL MISSOURI...

CITY           SKY/WX    TMP DP  RH WIND       PRES   REMARKS
ST. JOSEPH     RAIN      57  55  93 S7        30.21R FOG
MOSBY          CLOUDY    59  52  77 SE6       30.22S
WARRENSBURG    CLOUDY    59  50  72 SE6       30.23R
WHITEMAN AFB   CLOUDY    60  50  71 SE5       30.23R
CLINTON        CLOUDY    61  52  72 SE5       30.23S
SEDALIA        CLOUDY    60  50  69 SE8       30.25S
WARSAW         NOT AVBL
CHILLICOTHE      N/A     61  53  75 SE5       30.24S
KIRKSVILLE     CLOUDY    58  53  84 SE8       30.26F

$$

MOZ041-047>049-056>058-063>065-088>090-097-231200-
...EASTERN AND SOUTHERN MISSOURI...

CITY           SKY/WX    TMP DP  RH WIND       PRES   REMARKS
ST. LOUIS INTL LGT RAIN  64  53  67 CALM      30.30
SPIRIT OF STL  CLOUDY    58  57  97 CALM      30.29R
COLUMBIA       CLOUDY    60  53  77 SE6       30.27R
JEFFERSON CITY MOCLDY    58  54  86 E5        30.27R
ROLLA          CLOUDY    58  50  75 SE8       30.27R
OSAGE BEACH    CLOUDY    59  48  67 E5        30.26R
SPRINGFIELD    CLOUDY    60  48  64 S12       30.23R
BRANSON        CLOUDY    55  50  82 CALM      30.25S
JOPLIN         CLOUDY    58  54  86 CALM      30.22R
WEST PLAINS    CLOUDY    58  49  72 E3        30.28S

$$

IAZ060-094-KSZ022-034>040-054-083-096-NEZ052-066-093-231200-
...KANSAS...SOUTHEAST NEBRASKA AND IOWA...

CITY           SKY/WX    TMP DP  RH WIND       PRES   REMARKS
TOPEKA         CLOUDY    58  53  84 SE6       30.19S
MANHATTAN      CLOUDY    57  55  93 SE5       30.16S
EMPORIA        CLOUDY    56  55  97 S8        30.19R
CHANUTE        CLOUDY    57  56  96 SE6       30.20S FOG
WICHITA        CLOUDY    56  55  97 SE6       30.15S FOG
OMAHA          CLOUDY    58  51  78 SE6       30.19F
LINCOLN        CLOUDY    57  49  74 SE6       30.18S
FALLS CITY     LGT RAIN  56  52  86 S3        30.19S
LAMONI         CLOUDY    58  52  80 E5        30.23S
DES MOINES     MOCLDY    58  48  69 E5        30.25R

$$



USA.gov is the U.S. government's official web portal to all federal, state and local government web resources and services.